ERBS

Last updated on Sun Jan 08 2023 00:02:10 GMT+0000 (Coordinated Universal Time)

1 15354U 84108B 23007.70452640 .02859012 11328-4 55342-3 0 9997 2 15354 56.9762 274.2483 0002561 145.3336 301.4215 16.31159109113607

Satellite not in orbit